#timestamp,LO_Frequency,Hit,StdDev 
1507546815.7,286047006.7,N
1507546835.5,286047004.9,N
1507546855.3,286047004.1,N
1507546875.2,286047001.4,N
1507546895.9,286047003.0,N
1507546915.7,286047003.4,N
1507546935.6,286047001.7,N
1507546955.4,286047004.1,N
1507546975.2,286047000.0,N
1507546995.0,286047004.0,N
1507546995.9,286047004.0,N
1507547015.8,286047005.9,N
1507547035.6,286047003.6,N
1507547055.4,286047007.6,N
1507547075.3,286047010.7,N
1507547095.1,286047013.9,Y
1507547115.8,286047008.7,P
1507547135.7,286047007.0,P
1507547155.5,286047004.3,P
1507547175.3,286047005.2,Y
1507547195.2,286046996.3,P
1507547215.0,286046994.4,N
1507547215.9,286046994.4,N
1507547235.7,286046995.0,N
1507547255.6,286046992.2,N
1507547275.4,286046994.7,N
1507547295.2,286046996.5,N
1507547315.1,286046995.0,N
1507547316.0,286046995.0,N
1507547335.8,286046995.0,N
1507547355.6,286046998.6,N
1507547375.5,286047000.1,N
1507547395.3,286046998.2,N
1507547415.1,286047001.2,N
1507547435.9,286046997.8,N
1507547455.7,286046995.5,N
1507547475.5,286046997.5,N
1507547495.3,286046995.4,N
1507547515.2,286046996.7,N
1507547535.0,286046998.1,N
1507547535.9,286046998.1,N
1507547555.7,286046997.4,N
1507547575.6,286046997.6,N
1507547595.4,286047002.8,N
1507547615.2,286046998.9,N
1507547635.1,286046997.0,N
1507547636.0,286046997.0,N
1507547655.8,286046996.4,N
1507547675.6,286046992.1,N
1507547695.5,286046994.0,N
1507547715.3,286046991.4,Y
1507547735.1,286046993.4,P
1507547755.9,286046999.0,N
1507547775.7,286046997.0,N
1507547795.5,286046999.4,N
1507547815.4,286046996.5,N
1507547835.2,286046995.1,N
1507547855.0,286046997.1,N
1507547855.9,286046997.1,N
1507547875.7,286046998.5,N
1507547895.6,286047000.7,N
1507547915.4,286046997.1,N
1507547935.2,286046997.5,N
1507547955.1,286046996.9,N
1507547956.0,286046996.9,N
1507547975.8,286046997.4,N
1507547995.6,286046996.3,N
1507548015.5,286046995.2,Y
1507548035.3,286046999.4,P
1507548055.1,286046997.2,N
1507548075.9,286046998.9,N
1507548095.7,286046998.6,N
1507548115.5,286046995.6,Y
1507548135.4,286046998.7,P
1507548155.2,286046997.2,P
1507548175.0,286046999.0,N
1507548175.9,286046999.0,N
1507548195.8,286046998.1,N
1507548215.6,286047000.2,N
1507548235.4,286046997.6,N
1507548255.3,286046996.9,Y
1507548275.1,286047000.5,P
1507548295.8,286047002.1,N
1507548315.7,286047002.3,N
1507548335.5,286047008.5,Y
1507548355.3,286047005.0,P
1507548375.2,286047010.2,P
1507548395.9,286047010.3,N
1507548415.7,286047010.1,N
1507548435.6,286047007.2,N
1507548455.4,286047004.6,N
1507548475.2,286047005.0,N
1507548495.0,286047006.1,N
1507548496.0,286047006.1,N
1507548515.8,286047012.2,Y
1507548535.6,286047004.8,P
1507548555.5,286047006.3,P
1507548575.3,286047008.4,P
1507548595.1,286047007.1,Y
1507548615.9,286047001.1,P
1507548635.7,286046999.7,N
1507548655.5,286046996.9,N
1507548675.3,286046998.4,N
1507548695.2,286046997.8,N
1507548715.0,286046994.6,N
1507548715.9,286046994.6,N
1507548735.7,286046995.0,N
1507548755.6,286046997.6,N
1507548775.4,286046999.6,N
1507548795.2,286046998.1,N
1507548815.1,286046999.6,N
1507548816.0,286046999.6,N
1507548835.8,286047002.3,N
1507548855.6,286047000.1,N
1507548875.5,286047002.4,N
1507548895.3,286046999.9,N
1507548915.1,286046998.3,N
1507548935.9,286046995.1,N
1507548955.7,286046997.0,N
1507548975.5,286046994.9,N
1507548995.3,286046997.8,N
1507549015.2,286046994.8,N
1507549035.9,286046994.3,N
1507549055.7,286046997.4,N
1507549075.6,286046995.8,N
1507549095.4,286046994.6,N
1507549115.2,286046996.3,N
1507549135.1,286046992.0,N
1507549136.0,286046992.0,N
1507549155.8,286046993.7,N
1507549175.6,286046996.4,N
1507549195.5,286046996.4,N
1507549215.3,286046999.4,N
1507549235.1,286046997.6,N
1507549255.8,286046993.2,N
1507549275.7,286046992.2,N
1507549295.5,286046994.3,N
1507549315.3,286046992.0,N
1507549335.2,286046994.4,N
1507549355.0,286046996.4,N
1507549355.9,286046996.4,N
1507549375.7,286046993.6,N
1507549395.6,286046994.2,N
1507549415.4,286046997.2,N
1507549435.2,286046994.1,N
1507549455.1,286046994.6,N
1507549456.0,286046994.6,N
1507549475.8,286046994.2,Y
1507549495.6,286047000.3,P
1507549515.5,286047004.4,N
1507549535.3,286046999.8,N
1507549555.1,286047001.3,N
1507549575.9,286047003.9,N
1507549595.7,286047002.9,N
1507549615.5,286047001.4,N
1507549635.4,286047003.3,N
1507549655.2,286047000.9,N
1507549675.0,286046999.6,N
1507549675.9,286046999.6,N
1507549695.8,286046997.2,N
1507549715.6,286046996.9,N
1507549735.4,286046997.8,N
1507549755.2,286046996.5,N
1507549775.1,286047000.5,N
1507549776.0,286047000.5,N
1507549795.8,286047004.3,N
1507549815.6,286047004.4,N
1507549835.5,286047002.3,N
1507549855.3,286047000.6,N
1507549875.1,286047001.2,N
1507549895.9,286047004.4,N
1507549915.7,286047000.8,N
1507549935.5,286046997.0,N
1507549955.4,286046995.0,N
1507549975.2,286046996.0,N
1507549995.0,286046995.9,N
1507549995.9,286046995.9,N
1507550015.8,286046992.2,N
1507550035.6,286046995.9,N
1507550055.4,286046993.4,N
1507550075.3,286046993.5,N
1507550095.1,286046999.1,N
1507550096.0,286046999.1,N
1507550115.8,286047000.6,N
1507550135.6,286047004.2,N
1507550155.5,286046998.6,N
1507550175.3,286047004.0,N
1507550195.1,286047000.0,N
1507550215.9,286046998.8,N
1507550235.7,286046997.5,N
1507550255.5,286046999.5,N
1507550275.4,286046999.9,N
1507550295.2,286046998.6,N
1507550315.0,286046997.1,N
1507550315.9,286046997.1,N
1507550335.8,286046997.5,N
1507550355.6,286046998.3,N
1507550375.4,286046998.8,N
1507550395.3,286046995.0,N
